Location: Anjeux
(47.8815°N, 6.2076°E)
Time: 03:08:54
(UTC+00:00)

Daily predictions for brighter satellites

Satellite Brightness Start Highest point End
(mag) Time Altitude Azimuth Time Altitude Azimuth Time Altitude Azimuth
Cosmos 2082 Rocket 4.1 01:57:46 26° NE 01:57:46 26° NE 02:00:09 10° NNE
Cosmos 2322 Rocket 4.3 02:00:40 10° NNW 02:08:18 20° E 02:10:30 10° ESE
ARIANE 5 R/B 4.3 02:20:51 10° NNE 02:23:19 27° NE 02:23:19 27° NE
ADEOS II 4.1 02:22:02 10° N 02:23:45 21° N 02:23:45 21° N
IDEFIX/ARIANE 42P 4.2 02:30:39 10° NNE 02:33:15 30° NNE 02:33:15 30° NNE
Lacrosse 5 3.4 02:44:44 32° NE 02:44:44 32° NE 02:48:32 10° E
CZ-2D R/B 4.5 02:50:32 10° NNW 02:51:13 13° NNW 02:51:13 13° NNW
CZ-2C R/B 3.7 02:53:09 10° NNE 02:57:30 35° E 02:57:30 35° E
USA 267 3.3 02:52:28 10° NE 02:58:55 63° NNW 02:58:58 63° NNW
ALOS 4.3 03:07:45 10° NE 03:11:38 25° E 03:14:46 13° SE
PAYLOAD A 4.5 03:10:43 10° NNE 03:15:56 60° E 03:16:39 55° SE
Cosmos 2360 Rocket 2.8 03:13:25 10° NNW 03:19:00 54° ENE 03:24:33 10° SE
Iridium 4 Rocket 4.3 03:22:00 37° N 03:22:00 37° N 03:24:41 10° N
S3M 4.2 03:21:38 30° SSE 03:24:41 65° E 03:30:47 10° NNE
CENTAUR R/B 3.9 03:17:14 10° NW 03:24:52 51° NE 03:33:23 10° ESE
Cosmos 1745 Rocket 4.0 03:22:53 10° N 03:29:12 81° E 03:35:33 10° S
SL-08 R/B 4.3 03:25:18 10° NNW 03:31:27 72° W 03:31:58 68° SW
Cosmos 2333 Rocket 3.7 03:28:16 10° NNW 03:33:34 36° NE 03:38:51 10° ESE
SL-08 ROCKET BODY 4.3 03:28:26 10° NNW 03:34:32 71° W 03:35:37 58° SSW
Cosmos 1269 Rocket 3.8 03:35:37 83° WSW 03:35:46 84° WNW 03:41:07 10° NNE
Cosmos 2221 2.6 03:38:53 73° NE 03:38:53 73° NE 03:42:57 10° NNE
Cosmos 2082 Rocket 3.5 03:39:37 27° NW 03:39:37 27° NW 03:43:53 10° N
Cosmos 1992 Rocket 4.4 03:34:18 10° NNW 03:39:29 61° ENE 03:44:37 10° SE
Lacrosse 4 Rocket 2.2 03:39:47 24° NNW 03:42:14 54° NE 03:46:34 10° SE
SL-27 R/B 3.6 03:48:45 40° NNE 03:48:45 40° NNE 03:51:11 10° NNE
Cosmos 2322 Rocket 2.2 03:50:23 56° SW 03:50:23 56° SW 03:55:31 10° S
ISS -2.6 03:57:03 39° NNE 03:57:03 39° NNE 03:59:53 10° ENE
Meteor 1-4 Rocket 2.9 03:58:28 58° N 03:58:28 58° N 04:01:28 10° N
Cosmos 1500 Rocket 3.4 03:58:40 10° NNW 04:03:02 74° W 04:07:23 10° S
Landsat 5 3.7 04:04:23 48° NNW 04:04:23 48° NNW 04:07:20 10° NNW
COSMOS 2428 3.9 03:58:36 10° NNW 04:04:03 43° NE 04:09:29 10° SE
ARIANE 5 R/B 3.8 04:00:29 10° N 04:03:40 24° NW 04:03:40 24° NW
Cosmos 2219 Rocket 3.1 03:59:40 10° NNW 04:05:11 49° NE 04:10:40 10° SE
NOSS 2-2 (D) 3.9 04:06:06 38° NNW 04:06:06 38° NNW 04:09:27 10° NNE
ADEOS II 4.3 04:04:13 10° NNW 04:04:42 11° NW 04:04:42 11° NW
SJ-6F 4.5 04:09:22 10° NNE 04:13:33 81° ESE 04:16:44 17° S
Cosmos 1606 2.8 04:11:10 20° S 04:13:44 76° E 04:17:38 10° NNE
H-2A R/B 1.9 04:09:45 10° SSE 04:14:02 89° ENE 04:18:14 10° NNW
Cosmos 1842 Rocket 3.8 04:14:47 44° WNW 04:14:47 44° WNW 04:18:50 10° N
IDEFIX/ARIANE 42P 4.2 04:11:25 10° NNW 04:14:04 18° NW 04:14:04 18° NW
SL-16 R/B 4.2 04:19:42 12° SSW 04:19:42 12° SSW 04:20:11 10° SSW
Meteor 2-2 Rocket 4.4 04:14:24 25° SW 04:17:51 58° WNW 04:23:49 10° N
USA 238 DEB 3.8 04:14:44 10° NW 04:22:01 88° SW 04:29:36 10° SE
Cosmos 883 Rocket 4.3 04:15:54 10° SSW 04:22:04 77° W 04:28:14 10° N
USA 238 3.8 04:14:51 10° NW 04:22:07 88° SW 04:29:41 10° SE
Lacrosse 5 1.8 04:23:57 21° NW 04:27:26 85° NE 04:32:31 10° SE
Cosmos 2322 3.7 04:23:57 10° NNW 04:29:41 88° ENE 04:35:22 10° SSE
Cosmos 2251 Rocket 3.6 04:24:23 10° SSW 04:29:43 82° ESE 04:35:07 10° NNE
CZ-4B R/B 2.4 04:27:05 10° SE 04:30:04 44° ENE 04:33:01 10° N
Cosmos 2344 3.5 04:25:35 20° SW 04:31:06 79° NW 04:39:14 10° NE
Cosmos 2315 Rocket 3.9 04:27:53 10° SSW 04:34:05 75° W 04:40:19 10° N
SeaSat 1 2.3 04:29:53 10° SSE 04:34:47 72° WSW 04:39:45 10° NNW
CZ-3 R/B 4.4 04:24:18 10° SW 04:35:09 18° S 04:40:41 10° SE
ATLAS 3B R/B 4.1 04:29:17 10° NW 04:35:32 35° NNE 04:42:01 10° E
CZ-2C R/B 3.1 04:31:31 10° N 04:35:44 31° WNW 04:36:54 27° W
ATLAS 5 CENTAUR R/B 3.8 04:34:36 10° SSE 04:37:40 22° ESE 04:41:00 10° ENE
METEOR-M 4.0 04:33:59 10° N 04:39:19 72° WNW 04:44:38 10° SSW
Meteor 1-20 Rocket 4.3 04:34:55 10° N 04:40:37 82° ENE 04:46:23 10° SSE
Cosmos 1833 4.1 04:36:00 14° SW 04:40:48 70° WNW 04:46:28 10° NNE
USA 267 4.1 04:35:20 10° ENE 04:41:21 41° N 04:46:19 15° WNW
Meteor 2-17 Rocket 4.4 04:35:28 10° NNW 04:41:25 61° W 04:47:20 10° S
Geosat 4.3 04:38:40 10° NNE 04:43:31 49° NW 04:46:52 19° WSW
FENGYUN 3A 3.9 04:40:40 10° N 04:45:54 49° WNW 04:51:06 10° SW
ERS-2 4.0 04:43:35 10° SE 04:46:52 33° ENE 04:50:10 10° N
Meteor 1-31 Rocket 2.7 04:44:30 10° NNE 04:48:24 84° WNW 04:52:15 10° SSW
ALOS 2.7 04:44:48 10° N 04:49:12 41° WNW 04:53:16 12° SW
NOSS 3-2 (A) 4.2 04:45:49 10° NW 04:53:11 55° WSW 05:01:26 10° SSE
H-2A R/B 3.8 04:50:12 10° NNE 04:53:59 50° E 04:57:44 10° S
COSMOS 2487 2.4 04:53:18 14° SW 04:56:06 56° WNW 04:59:29 10° NNE
SWAS 4.5 04:52:14 10° NNW 04:56:36 88° NE 05:00:56 10° SSE
USA 276 3.2 04:56:02 15° SW 04:58:25 41° SSE 05:01:28 10° E
Cosmos 1328 Rocket 4.2 04:55:02 10° S 04:59:15 59° E 05:03:31 10° NNE
CZ-4B R/B 3.6 04:55:51 10° N 04:59:34 61° WNW 05:03:10 10° SSW
Cosmos 2074 Rocket 4.0 04:54:05 10° N 05:00:20 89° ENE 05:06:33 10° S
Cosmos 2333 4.4 04:54:50 10° NW 05:00:25 50° WSW 05:05:58 10° S
MOS 1 Rocket 3.1 04:57:21 10° S 05:01:39 60° W 05:06:10 10° NNW
Cosmos 407 Rocket 4.1 04:57:25 10° S 05:02:32 61° ESE 05:07:36 10° NNE
Cosmos 2360 Rocket 3.0 04:57:57 10° NW 05:02:41 28° WSW 05:07:23 10° SSW
Cosmos 1805 Rocket 4.2 04:59:10 10° NNW 05:03:12 34° W 05:07:11 10° SSW
Cosmos 1470 Rocket 4.2 04:59:51 10° N 05:04:11 58° ENE 05:08:27 10° SSE
Iridium 51 4.1 05:00:15 10° N 05:04:11 63° W 05:07:47 10° S
COSMO-SKYMED 1 2.6 05:01:32 10° S 05:05:48 57° W 05:10:07 10° NNW
Cosmos 2237 Rocket 3.2 05:01:15 10° NNW 05:06:47 49° NE 05:12:15 10° SE
Cosmos 614 Rocket 3.9 05:02:32 10° SSW 05:07:45 73° WNW 05:13:00 10° NNE
Cosmos 1782 3.0 05:05:15 10° S 05:09:11 75° E 05:13:09 10° NNE
YAOGAN 6 3.5 05:06:43 10° NNE 05:10:10 51° E 05:13:34 10° S
Cosmos 1484 Rocket 3.9 05:08:30 10° NNW 05:11:29 23° WNW 05:14:14 11° WSW
Cosmos 1437 Rocket 3.0 05:08:07 10° S 05:12:12 81° E 05:16:16 10° NNE
CENTAUR R/B 3.3 05:08:00 10° NW 05:15:58 59° WSW 05:24:39 10° SSE
CZ-2C R/B 3.7 05:10:36 10° SE 05:16:02 54° ENE 05:21:30 10° N
Cosmos 2221 4.4 05:15:46 12° WNW 05:16:44 13° WNW 05:18:42 10° NW
Cosmos 2333 Rocket 2.5 05:12:30 10° NW 05:17:59 45° WSW 05:23:25 10° S
deb Chang Zheng 4 3.6 05:15:04 10° NNE 05:19:23 88° ESE 05:23:41 10° SSW
Lacrosse 4 Rocket 2.8 05:17:14 10° WNW 05:20:34 21° WSW 05:23:50 10° SSW
Meteor 1-26 Rocket 4.3 05:15:03 10° SSW 05:20:43 83° W 05:26:39 10° N
Cosmos 2184 Rocket 4.0 05:16:22 10° NNW 05:22:37 67° W 05:28:54 10° S
ADEOS 3.9 05:18:16 10° N 05:23:14 45° WNW 05:28:11 10° SW
Cosmos 1933 Rocket 4.1 05:20:32 10° N 05:24:58 64° ENE 05:29:24 10° SSE
Cosmos 1666 Rocket 4.0 05:22:19 10° NNW 05:26:23 40° W 05:30:28 10° SSW
SL-16 R/B 4.1 05:21:34 10° NNW 05:26:33 30° NE 05:31:30 10° ESE
Cosmos 2227 Rocket 4.4 05:22:11 10° SSE 05:27:02 30° ESE 05:31:54 10° NE
Sich 1 4.1 05:26:20 10° NW 05:29:53 24° W 05:33:23 10° SW
NOSS 3-4 (A) 3.6 05:24:25 10° SSW 05:30:16 79° SE 05:36:36 10° NE
Envisat 3.1 05:25:13 10° NNE 05:30:21 86° ESE 05:35:26 10° SSW
NOSS 3-4 (C) 3.6 05:24:31 10° SSW 05:30:22 78° SE 05:36:41 10° NE
NOSS 3-2 (C) 4.3 05:25:08 10° NW 05:32:27 51° WSW 05:40:37 10° SSE
ISS -3.6 05:30:23 10° WNW 05:33:46 76° NNE 05:37:07 10° ESE
CZ-4C R/B 2.1 05:31:41 10° SW 05:36:39 88° NW 05:42:43 10° NE
PSLV R/B 4.0 05:33:00 10° S 05:37:08 59° W 05:41:17 10° NNW
Cosmos 2297 Rocket 3.4 05:37:24 10° S 05:42:48 49° ESE 05:48:13 10° NE
ATLAS 2AS CENTAUR R/B 3.4 05:37:29 10° SSW 05:45:22 73° SE 05:53:08 10° NE
